GW2584 Weather Reports


time (UTC)temp
C
wind
direction
speed
KPH
gust
KPH
rain 1hr
cm
rain 24hr
cm
rain mn
cm
humidity
%
barometer
mb
20260831094607 17 195 1.6 9.7 0.00 0.13 0.00 44 1023.7
20260831093132 17 221 3.2 9.7 0.00 0.13 0.00 44 1023.6
20260831091606 17 0 1.6 4.8 0.00 0.13 0.00 43 1023.6
20260831090129 17 193 3.2 16.1 0.00 0.13 0.00 43 1023.6
20260831084604 17 219 3.2 8.0 0.00 0.13 0.00 42 1023.6
20260831083113 17 190 3.2 11.3 0.00 0.13 0.00 42 1023.6
20260831081606 17 171 0.0 6.4 0.00 0.13 0.00 42 1023.7
20260831080129 17 203 1.6 11.3 0.00 0.13 0.00 42 1023.8
20260831074606 17 195 3.2 9.7 0.00 0.13 0.00 43 1024.0
20260831073105 17 180 3.2 16.1 0.00 0.13 0.00 44 1024.3
20260831071605 17 181 3.2 11.3 0.00 0.13 0.00 45 1024.5
20260831070112 17 244 4.8 14.5 0.00 0.13 0.00 46 1024.6
20260831064608 17 224 9.7 22.5 0.00 0.13 0.00 47 1024.6
20260831063114 17 153 6.4 19.3 0.00 0.13 0.00 48 1024.5
20260831061612 17 228 6.4 19.3 0.00 0.13 0.00 49 1024.4
20260831060109 16 188 1.6 12.9 0.00 0.13 0.00 51 1024.3
20260831054611 16 223 4.8 16.1 0.00 0.13 0.13 51 1024.5
20260831053132 16 0 1.6 14.5 0.00 0.13 0.13 52 1024.8
20260831051606 16 139 1.6 20.9 0.00 0.13 0.13 52 1025.0
20260831050109 16 203 9.7 25.7 0.00 0.13 0.13 50 1025.8
20260831044645 17 262 6.4 33.8 0.00 0.13 0.13 48 1026.1
20260831043107 18 217 6.4 16.1 0.00 0.13 0.13 46 1025.7
20260831041617 18 179 8.0 25.7 0.00 0.13 0.13 44 1025.7
20260831040109 18 208 6.4 12.9 0.00 0.13 0.13 45 1024.9
20260831034609 18 221 4.8 12.9 0.00 0.13 0.13 44 1024.8
20260831033110 18 165 4.8 9.7 0.00 0.13 0.13 44 1024.6
20260831031605 18 222 4.8 14.5 0.00 0.13 0.13 44 1024.7
20260831030104 18 189 4.8 9.7 0.00 0.13 0.13 46 1024.6
20260831024602 18 207 6.4 17.7 0.00 0.13 0.13 46 1024.3
20260831023107 18 274 6.4 12.9 0.00 0.13 0.13 46 1024.3
20260831021605 18 203 4.8 14.5 0.00 0.13 0.13 46 1024.0
20260831020104 18 173 4.8 11.3 0.00 0.13 0.13 45 1023.7
20260831014603 19 239 4.8 16.1 0.00 0.13 0.13 44 1023.8
20260831013106 19 207 6.4 17.7 0.00 0.13 0.13 43 1023.8
20260831011602 20 188 6.4 19.3 0.00 0.13 0.13 42 1023.8
20260831010118 20 249 4.8 16.1 0.00 0.13 0.13 41 1023.7
20260831004617 20 241 3.2 20.9 0.00 0.13 0.13 40 1023.8
20260831003111 20 214 8.0 19.3 0.00 0.13 0.13 40 1023.7
20260831001604 20 266 6.4 19.3 0.00 0.13 0.13 39 1023.8
20260831000111 21 200 6.4 24.1 0.00 0.13 0.13 39 1023.9
20260830234626 21 205 9.7 27.4 0.00 0.13 0.13 38 1023.9
20260830233105 21 205 6.4 22.5 0.00 0.13 0.13 38 1023.9
20260830231613 21 220 9.7 20.9 0.00 0.13 0.13 38 1023.4
20260830230105 22 225 3.2 22.5 0.00 0.13 0.13 37 1023.4
20260830224604 21 255 6.4 27.4 0.00 0.13 0.13 37 1023.2
20260830223102 21 200 8.0 20.9 0.00 0.13 0.13 38 1023.1
20260830221609 21 197 14.5 38.6 0.00 0.13 0.13 39 1023.5
20260830220106 20 229 12.9 35.4 0.00 0.13 0.13 42 1023.7
20260830214607 20 239 12.9 30.6 0.00 0.13 0.13 42 1023.7
20260830213115 19 244 8.0 25.7 0.00 0.13 0.13 45 1024.1
20260830211617 18 202 9.7 29.0 0.03 0.13 0.13 46 1024.6
20260830210109 18 276 8.0 32.2 0.13 0.13 0.13 50 1024.5
20260830204605 17 184 9.7 20.9 0.13 0.13 0.13 63 1024.5
20260830203118 14 0 4.8 24.1 0.13 0.13 0.13 75 1024.7
20260830201612 16 221 11.3 33.8 0.10 0.10 0.10 62 1026.0
20260830200112 21 143 8.0 24.1 0.00 0.00 0.00 41 1024.7
20260830194606 22 293 1.6 24.1 0.00 0.00 0.00 39 1023.6
20260830193104 21 101 3.2 9.7 0.00 0.00 0.00 40 1023.1
20260830191625 21 246 3.2 11.3 0.00 0.00 0.00 44 1023.2
20260830190110 23 338 6.4 16.1 0.00 0.00 0.00 36 1023.2
20260830184608 23 0 4.8 19.3 0.00 0.00 0.00 34 1022.3
20260830183104 23 87 9.7 19.3 0.00 0.00 0.00 34 1022.6
20260830181602 23 61 12.9 22.5 0.00 0.00 0.00 34 1022.6
20260830180108 25 39 6.4 20.9 0.00 0.00 0.00 31 1022.6
20260830174617 25 195 3.2 12.9 0.00 0.00 0.00 30 1022.8
20260830173106 25 125 4.8 16.1 0.00 0.00 0.00 33 1022.8
20260830171604 24 89 3.2 12.9 0.00 0.00 0.00 34 1022.9
20260830170109 23 100 4.8 22.5 0.00 0.00 0.00 36 1023.0
20260830164606 22 212 4.8 14.5 0.00 0.00 0.00 36 1023.5
20260830163104 22 119 4.8 14.5 0.00 0.00 0.00 38 1023.5
20260830161621 21 224 6.4 24.1 0.00 0.00 0.00 39 1023.5
20260830160107 21 225 6.4 16.1 0.00 0.00 0.00 40 1023.6
20260830154606 19 186 6.4 17.7 0.00 0.00 0.00 44 1023.9
20260830153114 18 205 3.2 17.7 0.00 0.00 0.00 45 1023.6
20260830151603 18 290 9.7 22.5 0.00 0.00 0.00 46 1023.8
20260830150120 18 169 6.4 22.5 0.00 0.00 0.00 47 1024.4
20260830144607 18 169 12.9 27.4 0.00 0.00 0.00 45 1024.1
20260830143105 18 231 6.4 19.3 0.00 0.00 0.00 47 1023.4
20260830141602 18 192 3.2 19.3 0.00 0.00 0.00 48 1022.9
20260830140105 17 206 4.8 24.1 0.00 0.00 0.00 49 1023.0
20260830134607 17 223 4.8 16.1 0.00 0.00 0.00 51 1023.1
20260830133104 17 186 6.4 14.5 0.00 0.00 0.00 51 1023.1
20260830131604 17 220 8.0 19.3 0.00 0.00 0.00 50 1023.0
20260830130111 17 219 8.0 22.5 0.00 0.00 0.00 47 1022.9
20260830124608 18 248 4.8 14.5 0.00 0.00 0.00 46 1022.8
20260830123103 18 224 6.4 17.7 0.00 0.00 0.00 46 1022.6
20260830121605 18 185 3.2 16.1 0.00 0.00 0.00 46 1022.4
20260830120110 17 212 3.2 12.9 0.00 0.00 0.00 46 1022.2
20260830114617 17 188 4.8 17.7 0.00 0.00 0.00 48 1022.2
20260830113105 17 244 6.4 22.5 0.00 0.00 0.00 48 1021.9
20260830111607 17 237 9.7 24.1 0.00 0.00 0.00 49 1021.9
20260830110107 17 189 9.7 22.5 0.00 0.00 0.00 47 1021.9
20260830104606 18 184 9.7 17.7 0.00 0.00 0.00 47 1021.8
20260830103102 18 214 6.4 22.5 0.00 0.00 0.00 46 1022.1
20260830101605 18 230 4.8 29.0 0.00 0.00 0.00 46 1022.1
20260830100105 17 216 6.4 25.7 0.00 0.00 0.00 48 1022.0